FW8436 Weather Reports


Display with metric or nautical units.
time (UTC)temp
F
wind
direction
speed
MPH
gust
MPH
rain 1hr
in
rain 24hr
in
rain mn
in
humidity
%
barometer
mb
20260504081537 40 0 0.0 2.0 0.00 0.00 0.00 88 1017.2
20260504081032 40 0 0.0 2.0 0.00 0.00 0.00 88 1017.1
20260504080529 39 0 0.0 2.0 0.00 0.00 0.00 89 1017.2
20260504050530 39 360 0.0 2.0 0.00 0.00 0.00 87 1017.8
20260504045533 40 0 0.0 1.0 0.00 0.00 0.00 88 1017.7
20260504045033 40 0 0.0 2.0 0.00 0.00 0.00 88 1017.8
20260504044539 40 360 0.0 2.0 0.00 0.00 0.00 89 1017.7
20260504044033 40 360 1.0 2.0 0.00 0.00 0.00 89 1017.7
20260504043535 40 0 0.0 2.0 0.00 0.00 0.00 89 1017.5
20260504043042 40 360 0.0 1.0 0.00 0.00 0.00 89 1017.6
20260504042536 39 0 0.0 0.0 0.00 0.00 0.00 89 1017.5
20260504042032 39 0 0.0 0.0 0.00 0.00 0.00 89 1017.4
20260504041546 39 0 0.0 0.0 0.00 0.00 0.00 89 1017.4
20260504041029 39 0 0.0 0.0 0.00 0.00 0.00 89 1017.5
20260504040531 39 0 0.0 1.0 0.00 0.00 0.00 89 1017.5
20260504040040 39 0 0.0 2.0 0.00 0.00 0.00 89 1017.6
20260504035533 39 0 0.0 3.0 0.00 0.00 0.00 89 1017.5
20260504035032 38 360 1.0 3.0 0.00 0.00 0.00 89 1017.4
20260504034537 38 360 1.0 2.0 0.00 0.00 0.00 87 1017.4
20260504034032 38 360 0.0 2.0 0.00 0.00 0.00 87 1017.5
20260504033529 38 0 0.0 2.0 0.00 0.00 0.00 88 1017.5
20260504033048 38 0 1.0 2.0 0.00 0.00 0.00 88 1017.4
20260504032529 39 360 0.0 2.0 0.00 0.00 0.00 88 1017.4
20260504032032 39 360 0.0 0.0 0.00 0.00 0.00 89 1017.4
20260504031546 39 0 0.0 1.0 0.00 0.00 0.00 89 1017.6
20260504031035 38 0 0.0 1.0 0.00 0.00 0.00 89 1017.6
20260504030533 38 0 0.0 1.0 0.00 0.00 0.00 89 1017.5
20260504030043 38 0 0.0 2.0 0.00 0.00 0.00 88 1017.5
20260504025533 37 0 0.0 3.0 0.00 0.00 0.00 88 1017.6
20260504025033 37 360 1.0 3.0 0.00 0.00 0.00 87 1017.5
20260504024539 37 0 0.0 2.0 0.00 0.00 0.00 85 1017.6
20260504024030 37 0 1.0 3.0 0.00 0.00 0.00 85 1017.5
20260504023530 37 0 1.0 3.0 0.00 0.00 0.00 83 1017.5
20260504023040 38 360 1.0 3.0 0.00 0.00 0.00 82 1017.5
20260504022531 39 0 0.0 3.0 0.00 0.00 0.00 82 1017.4
20260504022030 39 360 0.0 3.0 0.00 0.00 0.00 82 1017.5
20260504021538 39 360 0.0 2.0 0.00 0.00 0.00 82 1017.4
20260504021030 39 0 0.0 3.0 0.00 0.00 0.00 82 1017.5
20260504020529 39 360 0.0 3.0 0.00 0.00 0.00 83 1017.4
20260504020043 39 360 1.0 3.0 0.00 0.00 0.00 82 1017.3
20260504015529 39 360 2.0 3.0 0.00 0.00 0.00 81 1017.4
20260504015032 40 360 1.0 2.0 0.00 0.00 0.00 78 1017.4
20260504014542 42 0 0.0 2.0 0.00 0.00 0.00 76 1017.3
20260504014031 42 0 0.0 2.0 0.00 0.00 0.00 76 1017.0
20260504013535 42 0 0.0 2.0 0.00 0.00 0.00 75 1016.8
20260504013042 42 0 0.0 2.0 0.00 0.00 0.00 75 1016.7
20260504012533 42 0 0.0 2.0 0.00 0.00 0.00 76 1016.8
20260504012033 41 360 0.0 3.0 0.00 0.00 0.00 77 1016.9
20260504011541 41 360 0.0 3.0 0.00 0.00 0.00 78 1017.0
20260504011033 41 360 2.0 3.0 0.00 0.00 0.00 79 1016.8
20260504010535 40 360 2.0 3.0 0.00 0.00 0.00 81 1016.7
20260504010037 40 360 1.0 3.0 0.00 0.00 0.00 80 1016.7
20260504005530 41 360 2.0 3.0 0.00 0.00 0.00 78 1016.6
20260504005035 42 266 0.0 3.0 0.00 0.00 0.00 75 1016.4
20260504004545 43 266 0.0 3.0 0.00 0.00 0.00 74 1016.4
20260504004030 42 266 1.0 2.0 0.00 0.00 0.00 76 1016.2
20260504003533 43 0 0.0 3.0 0.00 0.00 0.00 73 1016.2
20260504003036 44 266 1.0 4.0 0.00 0.00 0.00 70 1016.2
20260504002534 46 265 1.0 4.0 0.00 0.00 0.00 65 1016.2
20260504002033 47 360 2.0 4.0 0.00 0.00 0.00 62 1016.1
20260504001549 48 267 2.0 4.0 0.00 0.00 0.00 60 1016.1
20260504001033 51 268 2.0 3.0 0.00 0.00 0.00 56 1016.1
20260504000533 53 0 0.0 4.0 0.00 0.00 0.00 49 1016.0
20260504000039 54 0 1.0 4.0 0.00 0.00 0.00 40 1016.0
20260503235536 55 271 1.0 5.0 0.00 0.00 0.00 41 1015.9
20260503235033 57 273 1.0 5.0 0.00 0.00 0.00 35 1015.9
20260503234600 58 338 1.0 5.0 0.00 0.00 0.00 30 1016.0
20260503234030 59 208 0.0 5.0 0.00 0.00 0.00 30 1016.0
20260503233530 59 194 2.0 5.0 0.00 0.00 0.00 31 1016.0
20260503233049 60 5 0.0 4.0 0.00 0.00 0.00 33 1016.0
20260503232530 61 0 1.0 5.0 0.00 0.00 0.00 31 1016.0
20260503232033 61 313 1.0 5.0 0.00 0.00 0.00 30 1016.0
20260503231545 62 318 1.0 5.0 0.00 0.00 0.00 30 1016.0
20260503231029 62 0 0.0 8.0 0.00 0.00 0.00 28 1016.0
20260503230535 62 0 2.0 8.0 0.00 0.00 0.00 29 1016.0
20260503230044 62 239 1.0 5.0 0.00 0.00 0.00 31 1015.9
20260503225530 62 317 1.0 5.0 0.00 0.00 0.00 30 1015.9
20260503225033 62 327 2.0 5.0 0.00 0.00 0.00 32 1015.9
20260503224540 62 237 1.0 5.0 0.00 0.00 0.00 27 1015.8
20260503224030 63 234 2.0 5.0 0.00 0.00 0.00 29 1015.8
20260503223533 63 0 1.0 7.0 0.00 0.00 0.00 28 1016.0
20260503223041 64 29 1.0 7.0 0.00 0.00 0.00 28 1015.9
20260503222529 64 311 2.0 6.0 0.00 0.00 0.00 27 1015.9
20260503222029 64 63 2.0 6.0 0.00 0.00 0.00 28 1015.9
20260503221543 63 0 1.0 5.0 0.00 0.00 0.00 30 1015.9
20260503221030 63 222 2.0 5.0 0.00 0.00 0.00 26 1016.0
20260503220530 64 231 0.0 5.0 0.00 0.00 0.00 26 1016.0
20260503220039 64 44 2.0 5.0 0.00 0.00 0.00 29 1016.0
20260503215529 65 311 0.0 9.0 0.00 0.00 0.00 25 1016.0
20260503215033 65 0 1.0 9.0 0.00 0.00 0.00 29 1016.0
20260503214545 64 70 2.0 9.0 0.00 0.00 0.00 30 1016.2
20260503214033 63 46 1.0 9.0 0.00 0.00 0.00 27 1016.2
20260503213531 63 11 2.0 9.0 0.00 0.00 0.00 27 1016.2
20260503213045 63 5 3.0 9.0 0.00 0.00 0.00 25 1016.2
20260503212531 64 310 2.0 10.0 0.00 0.00 0.00 27 1016.2
20260503212032 65 44 3.0 10.0 0.00 0.00 0.00 27 1016.2
20260503211544 63 149 2.0 10.0 0.00 0.00 0.00 29 1016.2
20260503211033 62 94 3.0 10.0 0.00 0.00 0.00 26 1016.3
20260503210533 64 273 2.0 7.0 0.00 0.00 0.00 25 1016.4
20260503210039 64 54 2.0 10.0 0.00 0.00 0.00 26 1016.3
20260503205535 63 46 2.0 10.0 0.00 0.00 0.00 27 1016.4
20260503205030 62 283 4.0 10.0 0.00 0.00 0.00 26 1016.6
20260503204542 62 216 2.0 9.0 0.00 0.00 0.00 28 1016.6
20260503204035 63 224 2.0 7.0 0.00 0.00 0.00 25 1016.6
20260503203532 62 277 2.0 9.0 0.00 0.00 0.00 26 1016.7
20260503203054 62 0 1.0 12.0 0.00 0.00 0.00 33 1016.7
20260503202533 61 284 5.0 12.0 0.00 0.00 0.00 27 1016.9
20260503202035 62 312 2.0 8.0 0.00 0.00 0.00 28 1016.8
20260503201538 63 56 1.0 5.0 0.00 0.00 0.00 29 1016.9
20260503201029 62 0 2.0 8.0 0.00 0.00 0.00 29 1017.0
20260503200529 62 188 2.0 10.0 0.00 0.00 0.00 29 1017.2
20260503200037 61 298 5.0 14.0 0.00 0.00 0.00 28 1017.3
20260503195530 61 327 4.0 14.0 0.00 0.00 0.00 29 1017.4
20260503195029 62 304 3.0 9.0 0.00 0.00 0.00 27 1017.3
20260503194540 62 302 3.0 8.0 0.00 0.00 0.00 33 1017.3
20260503194032 60 278 3.0 10.0 0.00 0.00 0.00 28 1017.5
20260503193534 61 309 2.0 10.0 0.00 0.00 0.00 29 1017.6
20260503193043 61 312 4.0 10.0 0.00 0.00 0.00 30 1017.7
20260503192533 60 70 4.0 11.0 0.00 0.00 0.00 31 1017.7
20260503192029 60 232 2.0 13.0 0.00 0.00 0.00 31 1017.8
20260503191537 59 227 6.0 13.0 0.00 0.00 0.00 29 1018.0
20260503191030 60 218 2.0 12.0 0.00 0.00 0.00 31 1018.0
20260503190530 60 327 3.0 12.0 0.00 0.00 0.00 32 1018.1
20260503190047 60 248 2.0 10.0 0.00 0.00 0.00 30 1018.0
20260503185530 59 210 3.0 14.0 0.00 0.00 0.00 31 1018.1
20260503185029 59 60 2.0 14.0 0.00 0.00 0.00 34 1018.1
20260503184546 60 68 3.0 14.0 0.00 0.00 0.00 31 1018.2
20260503184031 60 160 5.0 9.0 0.00 0.00 0.00 31 1018.1
20260503183529 59 99 2.0 13.0 0.00 0.00 0.00 32 1018.1
20260503183036 59 128 5.0 13.0 0.00 0.00 0.00 31 1018.2
20260503182529 59 267 2.0 10.0 0.00 0.00 0.00 34 1018.4
20260503182032 59 252 3.0 10.0 0.00 0.00 0.00 31 1018.4
20260503181542 60 88 2.0 8.0 0.00 0.00 0.00 33 1018.6
20260503181033 59 360 3.0 6.0 0.00 0.00 0.00 38 1018.6
20260503180533 58 53 2.0 12.0 0.00 0.00 0.00 32 1018.7
20260503180050 56 87 4.0 12.0 0.00 0.00 0.00 33 1018.8
20260503175532 57 233 4.0 12.0 0.00 0.00 0.00 31 1018.8
20260503175031 59 57 3.0 12.0 0.00 0.00 0.00 33 1018.9
20260503174538 56 94 2.0 11.0 0.00 0.00 0.00 33 1019.0
20260503174030 58 170 2.0 8.0 0.00 0.00 0.00 32 1019.1
20260503173530 57 191 2.0 14.0 0.00 0.00 0.00 32 1019.0
20260503173047 56 219 4.0 14.0 0.00 0.00 0.00 38 1019.0
20260503172529 55 302 3.0 8.0 0.00 0.00 0.00 34 1019.1
20260503172032 56 300 1.0 7.0 0.00 0.00 0.00 31 1019.1
20260503171548 55 292 3.0 9.0 0.00 0.00 0.00 34 1019.3
20260503171031 55 317 3.0 10.0 0.00 0.00 0.00 32 1019.3
20260503170533 57 91 2.0 10.0 0.00 0.00 0.00 35 1019.5
20260503150533 51 65 3.0 10.0 0.00 0.00 0.00 42 1020.4
20260503131029 46 81 2.0 10.0 0.00 0.00 0.00 50 1020.6
20260503130530 45 137 2.0 12.0 0.00 0.00 0.00 52 1020.5
20260503110531 30 0 0.0 3.0 0.00 0.00 0.00 89 1019.1